Regional Weather Roundup
Issued by NWS

Home | Current Version | Previous Version | Text Only | Print | Product List | Glossary Off
Versions: 1 2 3 4 5 6 7 8 9 10 11 12 13 14 15 16 17 18 19 20 21 22 23 24 25 26 27 28 29 30 31 32 33 34 35 36 37 38 39 40 41 42 43 44 45 46 47 48 49 50

170
ASUS44 KLIX 181911
RWRLA
LOUISIANA WEATHER ROUNDUP
NATIONAL WEATHER SERVICE NEW ORLEANS LA
200 PM CDT SAT APR 18 2015

NOTE: "FAIR" INDICATES FEW OR NO CLOUDS BELOW 12,000 FEET WITH NO
      SIGNIFICANT WEATHER AND/OR OBSTRUCTIONS TO VISIBILITY.
      SKY/WX - SKY CONDITION AND SIGNIFICANT WEATHER.
      TMP - AIR TEMPERATURE.    DP   - DEWPOINT TEMPERATURE.
      RH  - RELATIVE HUMIDITY.  PRES - PRESSURE.
      HX  - HEAT INDEX.         WCI  - WIND CHILL INDEX.

*  THESE STATIONS ARE NOT NWS OR FAA STATIONS AND ARE NOT UNDER
   NWS QUALITY CONTROL.

LAZ040-048-061>063-065-066-069-182000-
SOUTHEAST LOUISIANA

CITY           SKY/WX    TMP DP  RH WIND       PRES   REMARKS
N.O. AUDUBON     N/A     77  73  87 MISG        N/A
N.O. INTL ARPT CLOUDY    78  69  73 SE12G22   29.85F
N.O. LAKEFRONT CLOUDY    80  70  71 SE16G24   29.85F
SLIDELL        CLOUDY    76  69  79 SE10G18   29.86F
BATON ROUGE    PTSUNNY   79  69  71 SE9       29.84F
BOOTHVILLE     LGT RAIN  71  70  96 E12G21    29.85F
BELLE CHASSE   CLOUDY    76  70  82 SE14      29.85F
BOGALUSA*        N/A     77  68  72 S8        29.89F
GALLIANO*      CLOUDY    76  71  84 SE5       29.86S
NEW ROADS*     MOCLDY    77  69  76 S8        29.86F
GONZALES*      FAIR      78  69  73 SE9       29.85F
HAMMOND*       CLOUDY    79  68  69 SE13      29.88F
HOUMA*         MOSUNNY   75  70  83 SE12      29.86F
PORT FOURCHON* CLEAR     73  70  88 SE15G23   29.90R

$$

LAZ041-044-053-054-182000-
SOUTHWEST LOUISIANA

CITY           SKY/WX    TMP DP  RH WIND       PRES   REMARKS
LAKE CHARLES   CLOUDY    74  69  85 SE6       29.84F
LAFAYETTE      CLOUDY    77  67  71 S9        29.86F
PATTERSON      CLOUDY    73  66  78 SE7       29.87S
SALT POINT       N/A     74  69  85 SE8       29.84F
NEW IBERIA     CLOUDY    77  67  71 S13       29.86S
CHENAULT AIRPK PTSUNNY   73  68  83 SE8       29.86F

$$

LAZ027-028-182000-
CENTRAL LOUISIANA

CITY           SKY/WX    TMP DP  RH WIND       PRES   REMARKS
FORT POLK      CLOUDY    71  68  92 S7        29.85S
ALEXANDRIA INT LGT RAIN  69  67  93 S7        29.86S FOG
ALEXANDRIA     LGT RAIN  69  67  93 SW3       29.87S

$$

LAZ001-002-182000-
NORTHWEST LOUISIANA

CITY           SKY/WX    TMP DP  RH WIND       PRES   REMARKS
SHREVEPORT     CLOUDY    74  67  78 NE3       29.83F
BARKSDALE AFB  CLOUDY    71  67  88 NE2       29.83F
DTN SHREVEPORT CLOUDY    73  65  75 VRB3      29.83F

$$

LAZ014-016-182000-
NORTHEAST LOUISIANA

CITY           SKY/WX    TMP DP  RH WIND       PRES   REMARKS
MONROE         CLOUDY    77  67  71 S12       29.85F
TALLULAH       LGT RAIN  71  66  84 SE10      29.87F

$$




USA.gov is the U.S. government's official web portal to all federal, state and local government web resources and services.